Hourly Data Report for December 26, 2017

VICTORIA UNIVERSITY CS
BRITISH COLUMBIA

48°27'25.200" N
123°18'16.600" W
60.10 m
1018598
71783
WYJ

Download Data

Hourly Data (December 2017)
Hourly Data Report for December 26, 2017
TIME
LST
Temp Definition
°C
Dew Point Definition
°C
Rel Hum Definition
%
Precip. Amount Definition
mm

Wind Dir Definition
10's deg

Wind Spd Definition
km/h
Visibility Definition
km
Stn Press Definition
kPa
Hmdx Definition


Wind Chill Definition


Weather Definition


00:00 2.6 0.5 86 0.0 7 2   102.06     LegendNANA
01:00 2.5 0.5 87 0.0 7 2   102.06     LegendNANA
02:00 2.4 0.7 88 0.0 8 2   102.06     LegendNANA
03:00 2.3 0.4 87 0.0 3 2   102.08     LegendNANA
04:00 2.2 0.6 89 0.0 2 2   102.05     LegendNANA
05:00 2.1 -0.6 82 0.0 36 3   102.01     LegendNANA
06:00 2.0 -1.2 80 0.0 1 6   102.01     LegendNANA
07:00 1.8 -1.4 79 0.0 1 6   102.00     LegendNANA
08:00 1.8 -1.4 79 0.0 1 6   101.98     LegendNANA
09:00 2.0 -1.4 78 0.0 1 5   101.98     LegendNANA
10:00 2.3 -1.1 78 0.0 36 6   102.01     LegendNANA
11:00 2.6 -1.2 76 0.0 36 6   102.01     LegendNANA
12:00 2.7 -2.0 71 0.0 35 8   101.97     LegendNANA
13:00 2.9 -1.2 74 0.0 2 6   101.89     LegendNANA
14:00 2.6 -1.7 73 0.0 2 5   101.82     LegendNANA
15:00 2.8 -0.8 77 0.0 36 4   101.78     LegendNANA
16:00 2.4 -1.1 77 0.0 35 5   101.80     LegendNANA
17:00 2.3 -0.9 79 0.0 1 5   101.74     LegendNANA
18:00 2.6 0.0 83 0.0 2 3   101.71     LegendNANA
19:00 2.0 -0.2 86 0.0 2 1   101.70     LegendNANA
20:00 1.3 -0.3 89 0.0 34 2   101.70     LegendNANA
21:00 1.9 -0.2 86 0.0 33 4   101.73     LegendNANA
22:00 2.0 -0.7 82 0.0 34 5   101.71     LegendNANA
23:00 2.2 0.0 86 0.0 36 4   101.71     LegendNANA

Notes on Data Quality.

Legend

  • E = Estimated
  • M = Missing
  • NA = Not Available*
  • [empty] = Indicates an unobserved value
Date modified: